Regional Weather Roundup
Issued by NWS

Home | Current Version | Previous Version | Graphics & Text | Print | Product List | Glossary On
Versions: 1 2 3 4 5 6 7 8 9 10 11 12 13 14 15 16 17 18 19 20 21 22 23 24 25 26 27 28 29 30 31 32 33 34 35 36 37 38 39 40 41 42 43 44 45 46 47 48 49 50
000
ASUS45 KSLC 161310
RWRUT

UTAH REGIONAL WEATHER ROUNDUP
NATIONAL WEATHER SERVICE SALT LAKE CITY UT
700 AM MDT TUE SEP 16 2014

UTZ001>011-023>025-161400-

NORTHERN UTAH

CITY           SKY/WX    TMP DP  RH WIND       PRES   REMARKS
HILL AFB       CLEAR     60  38  42 E22       30.13R
LOGAN          CLEAR     48  43  82 NW3       30.13R
OGDEN          CLEAR     61  38  42 S7        30.11R
PROVO AIRPORT  PTCLDY    57  43  58 S6        30.16S
SALT LAKE CITY PTCLDY    62  44  51 SE7       30.10R
VERNAL         CLEAR     50  42  74 W6        30.23R
WENDOVER       CLEAR     63  36  36 CALM      30.08S
HEBER CITY     CLEAR     41  37  87 CALM      30.25R
WEST JORDAN    CLEAR     64  43  45 S6        30.13R

$$

UTZ012>022-026-027-161400-

SOUTHERN UTAH

CITY           SKY/WX    TMP DP  RH WIND       PRES   REMARKS
BRYCE CANYON   PTCLDY    42  38  85 W5        30.37S
CEDAR CITY     CLEAR     50  41  71 CALM      30.19S
MILFORD        CLEAR     54  41  61 SW8       30.15S
MOAB/CYNLANDS  CLEAR     62  41  46 E6        30.15R
PRICE          CLEAR     58  36  43 NE8       30.24R
ST GEORGE      SUNNY     70  39  32 E6        30.04R
KANAB            N/A     57  39  51 N8        30.21R

$$

REGIONAL REPORTS     COLORADO/ARIZONA

CITY           SKY/WX    TMP DP  RH WIND       PRES   REMARKS
CRAIG, CO      PTCLDY    38  35  89 W3        30.30S
GRAND JUNCTION CLEAR     51  42  71 CALM      30.21R
RIFLE          CLEAR     48  40  73 CALM      30.29R
MONTROSE       CLEAR     52  41  66 SE5       30.30R
CORTEZ         CLEAR     48  43  82 NE5       30.31R
PAGE, AZ       CLEAR     73  49  42 S7        30.15R
GRAND CANYON   CLEAR     45  42  89 CALM      30.30R
KINGMAN        CLEAR     75  49  39 SE14      30.03R
FLAGSTAFF      CLEAR     48  44  86 CALM      30.33R

$$

REGIONAL REPORTS    NEVADA/IDAHO/WYOMING

CITY           SKY/WX    TMP DP  RH WIND       PRES   REMARKS
LAS VEGAS, NV  PTCLDY    81  51  35 SW6       29.88R
ELY            CLEAR     47  37  68 S10       30.23S
ELKO           PTCLDY    46  29  51 CALM      30.13R
POCATELLO, ID  CLEAR     52  36  54 CALM      30.11S
BURLEY         MOCLDY    53  43  68 NW5       30.06R
EVANSTON, WY   MOCLDY    53  31  42 SE5       30.31R
ROCK SPRINGS   PTCLDY    49  32  52 CALM      30.30S

$$


USA.gov is the U.S. government's official web portal to all federal, state and local government web resources and services.